This is the latest recevied weather packets stored in our database for station/object KE5QKR. If no packets are shown the sender has not sent any weather packets the latest 1 day(s).
| Time | Temp. | Humidity | Pressure | Rain* | Wind** | Luminosity | Snow |
|---|---|---|---|---|---|---|---|
| 1778032710 | 21.67° C | 94% | 1010.5 hPa | 0 mm | - | 0 W/m² | - |
| 1778032408 | 21.67° C | 93% | 1010.4 hPa | 0 mm | - | 0 W/m² | - |
| 1778032104 | 21.67° C | 93% | 1010.9 hPa | 0 mm | - | 0 W/m² | - |
| 1778031801 | 21.67° C | 93% | 1010.5 hPa | 0 mm | - | 0 W/m² | - |
| 1778031498 | 21.67° C | 92% | 1010.4 hPa | 0 mm | - | 0 W/m² | - |
| 1778031195 | 21.67° C | 92% | 1010.3 hPa | 0 mm | - | 0 W/m² | - |
| 1778030892 | 21.67° C | 92% | 1010.3 hPa | 0 mm | - | 0 W/m² | - |
| 1778030589 | 22.22° C | 91% | 1010.1 hPa | 0 mm | - | 0 W/m² | - |
| 1778030286 | 22.22° C | 91% | 1010.3 hPa | 0 mm | - | 0 W/m² | - |
| 1778029982 | 22.22° C | 91% | 1010.3 hPa | 0 mm | - | 0 W/m² | - |
| 1778029378 | 22.22° C | 90% | 1010.3 hPa | 0 mm | - | 0 W/m² | - |
| 1778029075 | 22.78° C | 89% | 1010.3 hPa | 0 mm | - | 0 W/m² | - |
| 1778028467 | 22.78° C | 88% | 1010.2 hPa | 0 mm | - | 1 W/m² | - |
| 1778027861 | 22.78° C | 87% | 1010.3 hPa | 0 mm | - | 2 W/m² | - |
| 1778027254 | 23.33° C | 86% | 1010.4 hPa | 0 mm | - | 5 W/m² | - |
| 1778026950 | 23.33° C | 86% | 1010.2 hPa | 0 mm | - | 8 W/m² | - |
| 1778026646 | 23.89° C | 85% | 1010.3 hPa | 0 mm | - | 12 W/m² | - |
| 1778026344 | 23.89° C | 85% | 1010.4 hPa | 0 mm | - | 16 W/m² | - |
| 1778025435 | 23.89° C | 83% | 1010.1 hPa | 0 mm | - | 27 W/m² | - |
| 1778025133 | 24.44° C | 83% | 1010.1 hPa | 0 mm | - | 34 W/m² | - |
| 1778024223 | 24.44° C | 81% | 1010.2 hPa | 0 mm | - | 45 W/m² | - |
| 1778023316 | 25° C | 80% | 1010.3 hPa | 0 mm | - | 72 W/m² | - |
| 1778021498 | 25° C | 78% | 1010.4 hPa | 0 mm | - | 58 W/m² | - |
| 1778019981 | 25.56° C | 76% | 1010.4 hPa | 0 mm | - | 129 W/m² | - |
| 1778018466 | 26.11° C | 74% | 1010.2 hPa | 0 mm | - | 144 W/m² | - |
* Rain latest hour (hover to see other rain measurements)
** Current wind speed in m/s (hover to see current wind gust speed)